
Distance (Route):
Temperature : 22.6°C
Humidity : 37.0%
Pressure : 0hPa| Receiver | Frames | First received | Last received |
|---|---|---|---|
| LZ4TU-5 | 87 | 2026-09-03 11:19:42 | 2026-09-03 12:57:02 |
| Receiver | Date | Latitude | Longitude | Direction | Speed | Altitude | Climb | Temperature | Humidity | Pressure | Voltage | Killtimer | Uptime | BKT | XDATA |
|---|---|---|---|---|---|---|---|---|---|---|---|---|---|---|---|
| LZ4TU-5 | 2026-09-03 12:57:02 | 44.05257 | 23.02384 | 121° | 5km/h | 931m | -15.1m/s | 22.6°C | 37.0% | 0hPa | 0V | 00:00:00 | 00:00:00 | 00:00:00 | |
| LZ4TU-5 | 2026-09-03 12:56:55 | 44.05262 | 23.02377 | 135° | 4km/h | 1031m | -14.6m/s | 21.7°C | 39.1% | 0hPa | 0V | 00:00:00 | 00:00:00 | 00:00:00 | |
| LZ4TU-5 | 2026-09-03 12:56:50 | 44.05264 | 23.02371 | 142° | 4km/h | 1106m | -13.9m/s | 21.0°C | 40.5% | 0hPa | 0V | 00:00:00 | 00:00:00 | 00:00:00 | |
| LZ4TU-5 | 2026-09-03 12:56:46 | 44.05267 | 23.02366 | 140° | 7km/h | 1164m | -13.6m/s | 20.5°C | 41.6% | 0hPa | 0V | 00:00:00 | 00:00:00 | 00:00:00 | |
| LZ4TU-5 | 2026-09-03 12:56:41 | 44.05273 | 23.02357 | 148° | 9km/h | 1237m | -13.6m/s | 19.7°C | 43.4% | 0hPa | 0V | 00:00:00 | 00:00:00 | 00:00:00 | |
| LZ4TU-5 | 2026-09-03 12:56:36 | 44.05283 | 23.02351 | 165° | 7km/h | 1310m | -14.4m/s | 19.0°C | 44.6% | 0hPa | 0V | 00:00:00 | 00:00:00 | 00:00:00 | |
| LZ4TU-5 | 2026-09-03 12:56:31 | 44.05294 | 23.02354 | 195° | 7km/h | 1370m | -14.6m/s | 18.3°C | 45.7% | 0hPa | 0V | 00:00:00 | 00:00:00 | 00:00:00 | |
| LZ4TU-5 | 2026-09-03 12:56:27 | 44.05301 | 23.02356 | 197° | 7km/h | 1431m | -14.5m/s | 17.8°C | 47.1% | 0hPa | 0V | 00:00:00 | 00:00:00 | 00:00:00 | |
| LZ4TU-5 | 2026-09-03 12:56:22 | 44.05313 | 23.02361 | 201° | 13km/h | 1509m | -15.1m/s | 17.1°C | 48.6% | 0hPa | 0V | 00:00:00 | 00:00:00 | 00:00:00 | |
| LZ4TU-5 | 2026-09-03 12:56:17 | 44.05327 | 23.02368 | 202° | 13km/h | 1588m | -15.2m/s | 16.4°C | 49.4% | 0hPa | 0V | 00:00:00 | 00:00:00 | 00:00:00 | |
| LZ4TU-5 | 2026-09-03 12:56:12 | 44.05342 | 23.02373 | 196° | 13km/h | 1668m | -15.4m/s | 15.9°C | 48.6% | 0hPa | 0V | 00:00:00 | 00:00:00 | 00:00:00 | |
| LZ4TU-5 | 2026-09-03 12:56:07 | 44.05358 | 23.02381 | 172° | 7km/h | 1736m | -14.8m/s | 15.6°C | 45.0% | 0hPa | 0V | 00:00:00 | 00:00:00 | 00:00:00 | |
| LZ4TU-5 | 2026-09-03 12:56:02 | 44.05367 | 23.02377 | 161° | 7km/h | 1810m | -14.1m/s | 15.2°C | 39.7% | 0hPa | 0V | 00:00:00 | 00:00:00 | 00:00:00 | |
| LZ4TU-5 | 2026-09-03 12:55:58 | 44.05373 | 23.02370 | 147° | 9km/h | 1870m | -13.5m/s | 14.5°C | 42.2% | 0hPa | 0V | 00:00:00 | 00:00:00 | 00:00:00 | |
| LZ4TU-5 | 2026-09-03 12:55:54 | 44.05379 | 23.02362 | 141° | 7km/h | 1926m | -13.4m/s | 14.1°C | 42.0% | 0hPa | 0V | 00:00:00 | 00:00:00 | 00:00:00 | |
| LZ4TU-5 | 2026-09-03 12:55:49 | 44.05385 | 23.02354 | 139° | 7km/h | 1998m | -13.7m/s | 13.4°C | 39.9% | 0hPa | 0V | 00:00:00 | 00:00:00 | 00:00:00 | |
| LZ4TU-5 | 2026-09-03 12:55:45 | 44.05392 | 23.02349 | 147° | 7km/h | 2052m | -13.7m/s | 13.0°C | 38.3% | 0hPa | 0V | 00:00:00 | 00:00:00 | 00:00:00 | |
| LZ4TU-5 | 2026-09-03 12:55:41 | 44.05400 | 23.02342 | 157° | 11km/h | 2101m | -13.8m/s | 12.7°C | 36.2% | 0hPa | 0V | 00:00:00 | 00:00:00 | 00:00:00 | |
| LZ4TU-5 | 2026-09-03 12:55:36 | 44.05416 | 23.02332 | 160° | 16km/h | 2175m | -13.6m/s | 12.7°C | 26.8% | 0hPa | 0V | 00:00:00 | 00:00:00 | 00:00:00 | |
| LZ4TU-5 | 2026-09-03 12:55:31 | 44.05437 | 23.02318 | 149° | 20km/h | 2245m | -14.2m/s | 12.5°C | 25.8% | 0hPa | 0V | 00:00:00 | 00:00:00 | 00:00:00 | |
| LZ4TU-5 | 2026-09-03 12:55:27 | 44.05455 | 23.02303 | 150° | 22km/h | 2297m | -14.2m/s | 12.1°C | 25.6% | 0hPa | 0V | 00:00:00 | 00:00:00 | 00:00:00 | |
| LZ4TU-5 | 2026-09-03 12:55:22 | 44.05477 | 23.02283 | 151° | 22km/h | 2374m | -14.7m/s | 11.4°C | 26.1% | 0hPa | 0V | 00:00:00 | 00:00:00 | 00:00:00 | |
| LZ4TU-5 | 2026-09-03 12:55:17 | 44.05500 | 23.02264 | 153° | 22km/h | 2451m | -14.4m/s | 10.7°C | 26.9% | 0hPa | 0V | 00:00:00 | 00:00:00 | 00:00:00 | |
| LZ4TU-5 | 2026-09-03 12:55:12 | 44.05524 | 23.02244 | 153° | 24km/h | 2529m | -14.7m/s | 10.1°C | 26.9% | 0hPa | 0V | 00:00:00 | 00:00:00 | 00:00:00 | |
| LZ4TU-5 | 2026-09-03 12:55:08 | 44.05551 | 23.02228 | 154° | 24km/h | 2603m | -15.0m/s | 9.4°C | 27.4% | 0hPa | 0V | 00:00:00 | 00:00:00 | 00:00:00 | |
| LZ4TU-5 | 2026-09-03 12:55:04 | 44.05573 | 23.02212 | 159° | 24km/h | 2660m | -15.4m/s | 9.0°C | 28.6% | 0hPa | 0V | 00:00:00 | 00:00:00 | 00:00:00 | |
| LZ4TU-5 | 2026-09-03 12:54:58 | 44.05602 | 23.02196 | 158° | 24km/h | 2740m | -15.4m/s | 8.5°C | 30.6% | 0hPa | 0V | 00:00:00 | 00:00:00 | 00:00:00 | |
| LZ4TU-5 | 2026-09-03 12:54:54 | 44.05624 | 23.02182 | 153° | 22km/h | 2803m | -15.4m/s | 8.0°C | 32.4% | 0hPa | 0V | 00:00:00 | 00:00:00 | 00:00:00 | |
| LZ4TU-5 | 2026-09-03 12:54:49 | 44.05649 | 23.02163 | 148° | 22km/h | 2877m | -15.6m/s | 7.4°C | 34.5% | 0hPa | 0V | 00:00:00 | 00:00:00 | 00:00:00 | |
| LZ4TU-5 | 2026-09-03 12:54:45 | 44.05667 | 23.02144 | 140° | 22km/h | 2942m | -15.7m/s | 7.0°C | 36.5% | 0hPa | 0V | 00:00:00 | 00:00:00 | 00:00:00 | |
| LZ4TU-5 | 2026-09-03 12:54:40 | 44.05687 | 23.02117 | 135° | 20km/h | 3022m | -15.5m/s | 6.5°C | 36.6% | 0hPa | 0V | 00:00:00 | 00:00:00 | 00:00:00 | |
| LZ4TU-5 | 2026-09-03 12:54:35 | 44.05707 | 23.02091 | 127° | 22km/h | 3091m | -15.5m/s | 5.9°C | 35.7% | 0hPa | 0V | 00:00:00 | 00:00:00 | 00:00:00 | |
| LZ4TU-5 | 2026-09-03 12:54:30 | 44.05723 | 23.02058 | 122° | 22km/h | 3170m | -15.7m/s | 5.3°C | 35.2% | 0hPa | 0V | 00:00:00 | 00:00:00 | 00:00:00 | |
| LZ4TU-5 | 2026-09-03 12:54:25 | 44.05737 | 23.02025 | 120° | 22km/h | 3246m | -15.5m/s | 4.6°C | 36.0% | 0hPa | 0V | 00:00:00 | 00:00:00 | 00:00:00 | |
| LZ4TU-5 | 2026-09-03 12:54:20 | 44.05752 | 23.01991 | 122° | 22km/h | 3316m | -15.3m/s | 3.8°C | 36.9% | 0hPa | 0V | 00:00:00 | 00:00:00 | 00:00:00 | |
| LZ4TU-5 | 2026-09-03 12:54:16 | 44.05764 | 23.01962 | 124° | 24km/h | 3378m | -15.5m/s | 3.2°C | 37.3% | 0hPa | 0V | 00:00:00 | 00:00:00 | 00:00:00 | |
| LZ4TU-5 | 2026-09-03 12:54:11 | 44.05781 | 23.01927 | 127° | 24km/h | 3456m | -15.4m/s | 2.6°C | 36.1% | 0hPa | 0V | 00:00:00 | 00:00:00 | 00:00:00 | |
| LZ4TU-5 | 2026-09-03 12:54:06 | 44.05800 | 23.01892 | 127° | 26km/h | 3536m | -15.6m/s | 2.1°C | 35.6% | 0hPa | 0V | 00:00:00 | 00:00:00 | 00:00:00 | |
| LZ4TU-5 | 2026-09-03 12:54:01 | 44.05818 | 23.01858 | 121° | 26km/h | 3607m | -15.8m/s | 1.7°C | 25.9% | 0hPa | 0V | 00:00:00 | 00:00:00 | 00:00:00 | |
| LZ4TU-5 | 2026-09-03 12:53:57 | 44.05831 | 23.01828 | 124° | 24km/h | 3667m | -16.1m/s | 1.4°C | 21.9% | 0hPa | 0V | 00:00:00 | 00:00:00 | 00:00:00 | |
| LZ4TU-5 | 2026-09-03 12:53:52 | 44.05846 | 23.01794 | 129° | 22km/h | 3750m | -15.8m/s | 0.7°C | 23.3% | 0hPa | 0V | 00:00:00 | 00:00:00 | 00:00:00 | |
| LZ4TU-5 | 2026-09-03 12:53:47 | 44.05863 | 23.01763 | 126° | 22km/h | 3832m | -15.6m/s | 0.1°C | 21.5% | 0hPa | 0V | 00:00:00 | 00:00:00 | 00:00:00 | |
| LZ4TU-5 | 2026-09-03 12:53:43 | 44.05875 | 23.01738 | 127° | 24km/h | 3897m | -15.7m/s | -0.5°C | 19.7% | 0hPa | 0V | 00:00:00 | 00:00:00 | 00:00:00 | |
| LZ4TU-5 | 2026-09-03 12:53:38 | 44.05893 | 23.01702 | 129° | 26km/h | 3979m | -15.7m/s | -1.1°C | 19.7% | 0hPa | 0V | 00:00:00 | 00:00:00 | 00:00:00 | |
| LZ4TU-5 | 2026-09-03 12:53:34 | 44.05912 | 23.01674 | 126° | 27km/h | 4031m | -15.9m/s | -1.4°C | 20.5% | 0hPa | 0V | 00:00:00 | 00:00:00 | 00:00:00 | |
| LZ4TU-5 | 2026-09-03 12:53:29 | 44.05928 | 23.01634 | 120° | 22km/h | 4111m | -15.4m/s | -1.8°C | 22.4% | 0hPa | 0V | 00:00:00 | 00:00:00 | 00:00:00 | |
| LZ4TU-5 | 2026-09-03 12:53:25 | 44.05939 | 23.01608 | 125° | 20km/h | 4175m | -15.4m/s | -2.1°C | 26.1% | 0hPa | 0V | 00:00:00 | 00:00:00 | 00:00:00 | |
| LZ4TU-5 | 2026-09-03 12:53:20 | 44.05954 | 23.01578 | 123° | 20km/h | 4254m | -15.4m/s | -2.6°C | 33.9% | 0hPa | 0V | 00:00:00 | 00:00:00 | 00:00:00 | |
| LZ4TU-5 | 2026-09-03 12:53:15 | 44.05967 | 23.01549 | 116° | 18km/h | 4321m | -15.6m/s | -2.8°C | 30.8% | 0hPa | 0V | 00:00:00 | 00:00:00 | 00:00:00 | |
| LZ4TU-5 | 2026-09-03 12:53:11 | 44.05975 | 23.01526 | 113° | 18km/h | 4385m | -15.6m/s | -3.3°C | 31.0% | 0hPa | 0V | 00:00:00 | 00:00:00 | 00:00:00 | |
| LZ4TU-5 | 2026-09-03 12:53:06 | 44.05984 | 23.01495 | 107° | 20km/h | 4462m | -15.1m/s | -3.9°C | 32.9% | 0hPa | 0V | 00:00:00 | 00:00:00 | 00:00:00 | |
| LZ4TU-5 | 2026-09-03 12:38:55 | 44.10157 | 22.91879 | 347° | 38km/h | 31368m | 6.6m/s | -43.7°C | 0.2% | 0hPa | 0V | 00:00:00 | 00:00:00 | 00:00:00 | |
| LZ4TU-5 | 2026-09-03 12:38:50 | 44.10117 | 22.91880 | 349° | 38km/h | 31340m | 6.7m/s | -42.1°C | 0.0% | 0hPa | 0V | 00:00:00 | 00:00:00 | 00:00:00 | |
| LZ4TU-5 | 2026-09-03 12:38:22 | 44.09835 | 22.91914 | 341° | 38km/h | 31148m | 6.9m/s | -40.7°C | 0.9% | 0hPa | 0V | 00:00:00 | 00:00:00 | 00:00:00 | |
| LZ4TU-5 | 2026-09-03 12:38:18 | 44.09795 | 22.91932 | 336° | 35km/h | 31121m | 6.9m/s | -40.4°C | 1.0% | 0hPa | 0V | 00:00:00 | 00:00:00 | 00:00:00 | |
| LZ4TU-5 | 2026-09-03 12:38:12 | 44.09743 | 22.91962 | 326° | 29km/h | 31078m | 6.9m/s | -40.6°C | 1.3% | 0hPa | 0V | 00:00:00 | 00:00:00 | 00:00:00 | |
| LZ4TU-5 | 2026-09-03 12:12:41 | 44.09123 | 22.91694 | 113° | 9km/h | 20735m | 7.8m/s | -53.8°C | 0.4% | 0hPa | 0V | 00:00:00 | 00:00:00 | 00:00:00 | |
| LZ4TU-5 | 2026-09-03 12:12:36 | 44.09134 | 22.91659 | 114° | 22km/h | 20703m | 5.8m/s | -53.9°C | 0.4% | 0hPa | 0V | 00:00:00 | 00:00:00 | 00:00:00 | |
| LZ4TU-5 | 2026-09-03 12:12:11 | 44.09114 | 22.91501 | 64° | 18km/h | 20550m | 6.9m/s | -54.2°C | 0.2% | 0hPa | 0V | 00:00:00 | 00:00:00 | 00:00:00 | |
| LZ4TU-5 | 2026-09-03 12:12:06 | 44.09097 | 22.91474 | 71° | 24km/h | 20521m | 6.3m/s | -54.3°C | 0% | 0hPa | 0V | 00:00:00 | 00:00:00 | 00:00:00 | |
| LZ4TU-5 | 2026-09-03 12:09:11 | 44.08984 | 22.90191 | 45° | 16km/h | 19405m | 6.7m/s | -55.8°C | 0.5% | 0hPa | 0V | 00:00:00 | 00:00:00 | 00:00:00 | |
| LZ4TU-5 | 2026-09-03 12:09:06 | 44.08966 | 22.90182 | 16° | 20km/h | 19374m | 6.1m/s | -55.7°C | 0.5% | 0hPa | 0V | 00:00:00 | 00:00:00 | 00:00:00 | |
| LZ4TU-5 | 2026-09-03 12:09:01 | 44.08947 | 22.90157 | 60° | 24km/h | 19343m | 4.6m/s | -55.6°C | 0.4% | 0hPa | 0V | 00:00:00 | 00:00:00 | 00:00:00 | |
| LZ4TU-5 | 2026-09-03 12:08:35 | 44.08892 | 22.89975 | 50° | 18km/h | 19182m | 8.0m/s | -55.5°C | 0.4% | 0hPa | 0V | 00:00:00 | 00:00:00 | 00:00:00 | |
| LZ4TU-5 | 2026-09-03 12:08:30 | 44.08869 | 22.89960 | 12° | 11km/h | 19148m | 8.3m/s | -55.6°C | 0.5% | 0hPa | 0V | 00:00:00 | 00:00:00 | 00:00:00 | |
| LZ4TU-5 | 2026-09-03 11:55:44 | 44.09012 | 22.79488 | 105° | 57km/h | 14591m | 4.8m/s | -55.5°C | 2.5% | 0hPa | 0V | 00:00:00 | 00:00:00 | 00:00:00 | |
| LZ4TU-5 | 2026-09-03 11:55:39 | 44.09025 | 22.79423 | 100° | 47km/h | 14569m | 5.8m/s | -55.4°C | 2.5% | 0hPa | 0V | 00:00:00 | 00:00:00 | 00:00:00 | |
| LZ4TU-5 | 2026-09-03 11:55:15 | 44.09069 | 22.78898 | 95° | 62km/h | 14437m | 6.2m/s | -55.2°C | 3.1% | 0hPa | 0V | 00:00:00 | 00:00:00 | 00:00:00 | |
| LZ4TU-5 | 2026-09-03 11:55:10 | 44.09076 | 22.78777 | 95° | 73km/h | 14410m | 5.9m/s | -55.1°C | 2.9% | 0hPa | 0V | 00:00:00 | 00:00:00 | 00:00:00 | |
| LZ4TU-5 | 2026-09-03 11:52:40 | 44.09350 | 22.75989 | 100° | 69km/h | 13499m | 4.6m/s | -52.8°C | 0% | 0hPa | 0V | 00:00:00 | 00:00:00 | 00:00:00 | |
| LZ4TU-5 | 2026-09-03 11:37:59 | 44.19020 | 22.62905 | 102° | 44km/h | 8175m | 6.8m/s | -32.0°C | 54.3% | 0hPa | 0V | 00:00:00 | 00:00:00 | 00:00:00 | |
| LZ4TU-5 | 2026-09-03 11:37:54 | 44.19019 | 22.62817 | 92° | 37km/h | 8156m | 4.3m/s | -31.8°C | 0% | 0hPa | 0V | 00:00:00 | 00:00:00 | 00:00:00 | |
| LZ4TU-5 | 2026-09-03 11:30:49 | 44.20281 | 22.58538 | 102° | 51km/h | 5428m | 5.7m/s | -11.5°C | 26.0% | 0hPa | 0V | 00:00:00 | 00:00:00 | 00:00:00 | |
| LZ4TU-5 | 2026-09-03 11:30:45 | 44.20292 | 22.58499 | 152° | 13km/h | 5395m | 5.8m/s | -11.3°C | 24.7% | 0hPa | 0V | 00:00:00 | 00:00:00 | 00:00:00 | |
| LZ4TU-5 | 2026-09-03 11:30:39 | 44.20284 | 22.58439 | 86° | 42km/h | 5387m | 4.2m/s | -11.1°C | 27.3% | 0hPa | 0V | 00:00:00 | 00:00:00 | 00:00:00 | |
| LZ4TU-5 | 2026-09-03 11:26:01 | 44.21075 | 22.56507 | 119° | 27km/h | 3698m | 6.2m/s | -0.5°C | 24.8% | 0hPa | 0V | 00:00:00 | 00:00:00 | 00:00:00 | |
| LZ4TU-5 | 2026-09-03 11:25:57 | 44.21089 | 22.56482 | 117° | 20km/h | 3674m | 5.7m/s | -0.3°C | 25.6% | 0hPa | 0V | 00:00:00 | 00:00:00 | 00:00:00 | |
| LZ4TU-5 | 2026-09-03 11:24:48 | 44.21333 | 22.56034 | 139° | 18km/h | 3270m | 6.2m/s | 2.5°C | 37.8% | 0hPa | 0V | 00:00:00 | 00:00:00 | 00:00:00 | |
| LZ4TU-5 | 2026-09-03 11:24:43 | 44.21339 | 22.55999 | 112° | 7km/h | 3251m | 4.8m/s | 2.7°C | 37.9% | 0hPa | 0V | 00:00:00 | 00:00:00 | 00:00:00 | |
| LZ4TU-5 | 2026-09-03 11:23:29 | 44.21667 | 22.55571 | 174° | 20km/h | 2795m | 5.7m/s | 6.1°C | 32.8% | 0hPa | 0V | 00:00:00 | 00:00:00 | 00:00:00 | |
| LZ4TU-5 | 2026-09-03 11:22:19 | 44.22008 | 22.55260 | 166° | 24km/h | 2347m | 6.6m/s | 9.9°C | 27.6% | 0hPa | 0V | 00:00:00 | 00:00:00 | 00:00:00 | |
| LZ4TU-5 | 2026-09-03 11:22:15 | 44.22040 | 22.55247 | 167° | 27km/h | 2313m | 6.4m/s | 10.0°C | 25.4% | 0hPa | 0V | 00:00:00 | 00:00:00 | 00:00:00 | |
| LZ4TU-5 | 2026-09-03 11:21:04 | 44.22626 | 22.54966 | 152° | 35km/h | 1888m | 5.6m/s | 12.7°C | 44.1% | 0hPa | 0V | 00:00:00 | 00:00:00 | 00:00:00 | |
| LZ4TU-5 | 2026-09-03 11:21:00 | 44.22658 | 22.54943 | 147° | 33km/h | 1864m | 4.8m/s | 12.9°C | 0% | 0hPa | 0V | 00:00:00 | 00:00:00 | 00:00:00 | |
| LZ4TU-5 | 2026-09-03 11:19:51 | 44.23090 | 22.54458 | 127° | 27km/h | 1488m | 4.7m/s | 16.0°C | 42.6% | 0hPa | 0V | 00:00:00 | 00:00:00 | 00:00:00 | |
| LZ4TU-5 | 2026-09-03 11:19:47 | 44.23112 | 22.54432 | 135° | 24km/h | 1467m | 4.7m/s | 16.1°C | 42.6% | 0hPa | 0V | 00:00:00 | 00:00:00 | 00:00:00 | |
| LZ4TU-5 | 2026-09-03 11:19:42 | 44.23136 | 22.54384 | 145° | 29km/h | 1446m | 4.3m/s | 16.3°C | 42.8% | 0hPa | 0V | 00:00:00 | 00:00:00 | 00:00:00 |